Location: Kumla
(59.1265°N, 15.1401°E)
Time: 08:15:34
(UTC+01:00)

Transit 2A - Pass Details

Date: 12 December 2023
Orbit: 600 x 953 km, 66.7° (Epoch: 22 February)

Event Time Altitude Azimuth Distance (km) Brightness Sun altitude
Rises 17:05:26 0° 269° (W) 3,001 10.5 -13.8°
Reaches altitude 10° 17:07:58 10° 278° (W) 2,045 9.2 -14.1°
Maximum altitude 17:12:10 35° 345° (NNW) 1,006 6.6 -14.6°
Enters shadow 17:14:30 21° 38° (NE) 1,399 6.9 -14.9°
Drops below altitude 10° 17:16:12 10° 52° (NE) 1,960 - -15.1°
Sets 17:18:35 0° 62° (ENE) 2,858 - -15.4°
